Simultaneous Nadir Overpasses (SNOs) Predictions

Prediction of SNOs between LANDSAT-8 and METOP-B Satellite Orbit:

Table of predicted SNOs for the next 14.0 days since TLE Epoch: 7/6/2018
Index Date (LANDSAT-8) Time (LANDSAT-8) Lat,Lon (LANDSAT-8) SZA (LANDSAT-8 ) Date (METOP-B) Time (METOP-B) Lat,Lon (METOP-B) SZA (METOP-B ) Distance(km) Time Diff (sec)
1 07/09/2018 11:19:07 81.22, 51.80 61.07 07/09/2018 11:18:50 81.22, 51.61 61.05 3.20 17
2 07/09/2018 12:08:33 -81.24,-140.24 118.88 07/09/2018 12:09:28 -81.25,-140.08 118.83 2.78 55
3 07/12/2018 06:53:23 81.24, 118.43 61.46 07/12/2018 06:53:09 81.23, 118.37 61.44 1.24 14
4 07/12/2018 07:42:50 -81.23, -73.96 118.55 07/12/2018 07:43:49 -81.24, -74.08 118.53 2.07 59
5 07/15/2018 02:27:40 81.22,-175.32 61.84 07/15/2018 02:27:29 81.23,-175.26 61.84 1.21 11
6 07/15/2018 03:17:06 -81.25, -7.32 118.11 07/15/2018 03:18:08 -81.25, -7.31 118.08 0.14 62
7 07/17/2018 22:01:55 81.23,-108.73 62.32 07/17/2018 22:01:48 81.23,-108.90 62.29 2.91 7
8 07/17/2018 22:51:21 -81.26, 59.30 117.63 07/17/2018 22:52:26 -81.26, 59.46 117.58 2.64 65
9 07/20/2018 17:36:11 81.24, -42.15 62.84 07/20/2018 17:36:07 81.24, -42.15 62.84 0.48 4




NCC Satellite Simultaneous Nadir Overpasses (SNOs) Prediction Service
